Regional Weather Roundup
Issued by NWS Little Rock, AR

Home | Current Version | Previous Version | Text Only | Print | Product List | Glossary Off
Versions: 1 2 3 4 5 6 7 8 9 10 11 12 13 14 15 16 17 18 19 20 21 22 23 24 25 26 27 28 29 30 31 32

000
ASUS44 KLZK 261705
RWRLZK

WEATHER ROUNDUP FOR ARKANSAS
NATIONAL WEATHER SERVICE LITTLE ROCK AR
1200 PM CDT WED APR 26 2017

NOTE: "FAIR" INDICATES FEW OR NO CLOUDS BELOW 12,000 FEET WITH NO
SIGNIFICANT WEATHER AND/OR OBSTRUCTIONS TO VISIBILITY.

ARZ001-003-010-029-261800-
NORTHWEST ARKANSAS

CITY           SKY/WX    TMP DP  RH WIND       PRES   REMARKS
FAYETTEVILLE   LGT RAIN  52  52 100 W9        29.56R
FORT SMITH     LGT RAIN  57  54  89 VRB7      29.51F
HARRISON       TSTM      55  55 100 SE8       29.56R FOG
BENTONVILLE    CLOUDY    50  46  87 N8G17     29.57F
ROGERS         LGT RAIN  50  49  96 NW10      29.57F
SILOAM SPGS    CLOUDY    48  45  87 N14G20    29.57R
HIGHFILL       LGT RAIN  51  49  92 N17G23    29.56F
SPRINGDALE     LGT RAIN  52  52 100 NW13      29.56S
$$

ARZ004-005-016-261800-
NORTH CENTRAL ARKANSAS

CITY           SKY/WX    TMP DP  RH WIND       PRES   REMARKS
BATESVILLE     CLOUDY   N/A N/A N/A SE9G16    29.58S
FLIPPIN        CLOUDY   N/A N/A N/A SE8       29.56F THUNDER
MTN HOME       TSTM      54  54 100 VRB3      29.56F
$$

ARZ040-041-261800-
WEST CENTRAL ARKANSAS

CITY           SKY/WX    TMP DP  RH WIND       PRES   REMARKS
MENA           CLOUDY    63  63 100 E6        29.50F
MOUNT IDA      HVY RAIN  62  60  93 SE5       29.50F VSB 1/2
$$

ARZ009-017-025-026-028-261800-
NORTHEAST ARKANSAS

CITY           SKY/WX    TMP DP  RH WIND       PRES   REMARKS
CORNING        FAIR      73  66  78 S15G24    29.60
JONESBORO      CLOUDY    75  64  68 S22G31    29.59F
NEWPORT        CLOUDY    76  66  71 MISG      29.59R
WALNUT RIDGE   CLOUDY    72  63  73 S17       29.59R
BLYTHEVILLE    CLOUDY    77  65  66 S20G25    29.63F
NW BLYTHEVILLE PTSUNNY   77  64  65 S16G24    29.61F
$$

ARZ022-023-033-042-044-261800-
CENTRAL ARKANSAS

CITY           SKY/WX    TMP DP  RH WIND       PRES   REMARKS
LITTLE ROCK    CLOUDY    73  67  81 SE16G24   29.55F
N LITTLE ROCK    N/A     72  66  83 S13G23    29.54F
JACKSONVILLE   PTSUNNY   73  67  80 SE16G25   29.54F
CONWAY           N/A     68  61  77 NW9G20    29.57R HAZE
SEARCY         CLOUDY    71  66  84 S16G23    29.60R
HOT SPRINGS    CLOUDY    73  68  84 SW8G17    29.53S
RUSSELLVILLE   TSTM      58  57  97 VRB5      29.53F FOG
$$

ARZ036-261800-
EAST ARKANSAS

CITY           SKY/WX    TMP DP  RH WIND       PRES   REMARKS
WEST MEMPHIS   LGT RAIN  72  65  78 S16G25    29.63S
$$

ARZ050-053-066-070-073-261800-
SOUTHWEST ARKANSAS

CITY           SKY/WX    TMP DP  RH WIND       PRES   REMARKS
ARKADELPHIA      N/A     75  68  78 S10G18    29.53S
CAMDEN         CLOUDY    73  66  78 S13G20    29.57S
TEXARKANA      CLOUDY    76  68  76 S9G20     29.50R
EL DORADO      CLOUDY    72  69  90 S12       29.58S
DE QUEEN       LGT RAIN  64  64 100 SW5       29.50F
$$

ARZ056-057-069-261800-
SOUTHEAST ARKANSAS

CITY           SKY/WX    TMP DP  RH WIND       PRES   REMARKS
PINE BLUFF     LGT RAIN  70  65  84 SE12      29.60S
STUTTGART      CLOUDY    73  57  56 S18       29.61S
MONTICELLO     CLOUDY    73  64  73 S13G26    29.61F

$$






USA.gov is the U.S. government's official web portal to all federal, state and local government web resources and services.